Time,TemperatureF,DewpointF,PressureIn,WindDirection,WindDirectionDegrees,WindSpeedMPH,WindSpeedGustMPH,Humidity,HourlyPrecipIn,Conditions,Clouds,dailyrainin,SoftwareType,DateUTC
2013-06-19 00:01:00,80.4,68.0,29.09,East,85,5.4,8.1,66,0.00,,,0.00,LWC V2.10 B1813,2013-06-19 05:01:00,
2013-06-19 00:06:00,80.4,68.0,29.09,ENE,59,3.1,6.3,66,0.00,,,0.00,LWC V2.10 B1813,2013-06-19 05:06:00,
2013-06-19 00:11:00,80.2,67.8,29.09,East,97,4.0,5.4,66,0.00,,,0.00,LWC V2.10 B1813,2013-06-19 05:11:00,
2013-06-19 00:16:00,80.1,67.7,29.09,ESE,104,5.4,10.1,66,0.00,,,0.00,LWC V2.10 B1813,2013-06-19 05:16:00,
2013-06-19 00:21:00,79.9,67.5,29.09,ESE,116,3.1,9.6,66,0.00,,,0.00,LWC V2.10 B1813,2013-06-19 05:21:00,
2013-06-19 00:26:00,79.7,67.3,29.09,ENE,67,6.3,8.1,66,0.00,,,0.00,LWC V2.10 B1813,2013-06-19 05:26:00,
2013-06-19 00:31:00,79.5,67.1,29.09,East,94,2.7,6.3,66,0.00,,,0.00,LWC V2.10 B1813,2013-06-19 05:31:00,
2013-06-19 00:36:00,79.5,67.1,29.09,East,88,3.6,8.7,66,0.00,,,0.00,LWC V2.10 B1813,2013-06-19 05:36:00,
2013-06-19 00:41:00,79.3,67.0,29.09,SE,136,7.6,7.6,66,0.00,,,0.00,LWC V2.10 B1813,2013-06-19 05:41:00,
2013-06-19 00:46:00,79.2,67.2,29.09,ENE,75,4.5,6.3,67,0.00,,,0.00,LWC V2.10 B1813,2013-06-19 05:46:00,
2013-06-19 00:51:00,79.0,67.1,29.09,East,100,4.9,8.7,67,0.00,,,0.00,LWC V2.10 B1813,2013-06-19 05:51:00,
2013-06-19 00:56:00,78.8,66.9,29.09,East,98,7.6,8.7,67,0.00,,,0.00,LWC V2.10 B1813,2013-06-19 05:56:00,
2013-06-19 01:01:00,78.8,66.9,29.09,ENE,72,2.7,7.6,67,0.00,,,0.00,LWC V2.10 B1813,2013-06-19 06:01:00,
2013-06-19 01:06:00,78.6,67.2,29.09,ENE,75,4.9,5.8,68,0.00,,,0.00,LWC V2.10 B1813,2013-06-19 06:06:00,
2013-06-19 01:11:00,78.4,67.0,29.09,ENE,73,6.7,6.7,68,0.00,,,0.00,LWC V2.10 B1813,2013-06-19 06:11:00,
2013-06-19 01:16:00,78.3,66.8,29.09,East,100,3.6,6.3,68,0.00,,,0.00,LWC V2.10 B1813,2013-06-19 06:16:00,
2013-06-19 01:21:00,78.3,67.2,29.09,East,93,5.4,8.7,69,0.00,,,0.00,LWC V2.10 B1813,2013-06-19 06:21:00,
2013-06-19 01:26:00,78.3,67.2,29.09,East,99,3.6,5.8,69,0.00,,,0.00,LWC V2.10 B1813,2013-06-19 06:26:00,
2013-06-19 01:31:00,78.1,67.1,29.09,ENE,73,3.6,7.6,69,0.00,,,0.00,LWC V2.10 B1813,2013-06-19 06:31:00,
2013-06-19 01:36:00,78.1,67.1,29.09,East,87,4.0,7.6,69,0.00,,,0.00,LWC V2.10 B1813,2013-06-19 06:36:00,
2013-06-19 01:41:00,78.1,67.5,29.09,ESE,102,7.2,7.2,70,0.00,,,0.00,LWC V2.10 B1813,2013-06-19 06:41:00,
2013-06-19 01:46:00,77.9,67.3,29.09,East,90,3.1,7.6,70,0.00,,,0.00,LWC V2.10 B1813,2013-06-19 06:46:00,
2013-06-19 01:48:00,77.9,67.3,29.09,ESE,109,3.1,4.9,70,0.00,,,0.00,LWC V2.10 B1813,2013-06-19 06:48:00,
2013-06-19 01:53:00,77.9,67.7,29.09,East,101,4.0,8.3,71,0.00,,,0.00,LWC V2.10 B1813,2013-06-19 06:53:00,
2013-06-19 01:58:00,77.9,67.7,29.09,East,98,7.6,7.6,71,0.00,,,0.00,LWC V2.10 B1813,2013-06-19 06:58:00,
2013-06-19 02:03:00,77.9,68.1,29.09,East,85,3.6,6.3,72,0.00,,,0.00,LWC V2.10 B1813,2013-06-19 07:03:00,
2013-06-19 02:08:00,77.9,68.1,29.09,ESE,120,4.0,7.6,72,0.00,,,0.00,LWC V2.10 B1813,2013-06-19 07:08:00,
2013-06-19 02:13:00,77.7,68.0,29.09,ENE,65,5.4,6.3,72,0.00,,,0.00,LWC V2.10 B1813,2013-06-19 07:13:00,
2013-06-19 02:18:00,77.7,68.4,29.09,ENE,64,3.1,5.8,73,0.00,,,0.00,LWC V2.10 B1813,2013-06-19 07:18:00,
2013-06-19 02:23:00,77.7,68.4,29.09,ENE,76,6.3,6.3,73,0.00,,,0.00,LWC V2.10 B1813,2013-06-19 07:23:00,
2013-06-19 02:28:00,77.5,68.6,29.09,East,96,3.1,5.4,74,0.00,,,0.00,LWC V2.10 B1813,2013-06-19 07:28:00,
2013-06-19 02:33:00,77.5,68.6,29.09,East,92,3.1,7.6,74,0.00,,,0.00,LWC V2.10 B1813,2013-06-19 07:33:00,
2013-06-19 02:38:00,77.4,68.4,29.09,SE,124,5.4,5.4,74,0.00,,,0.00,LWC V2.10 B1813,2013-06-19 07:38:00,
2013-06-19 02:43:00,77.4,68.8,29.09,ESE,117,3.6,5.8,75,0.00,,,0.00,LWC V2.10 B1813,2013-06-19 07:43:00,
2013-06-19 02:49:00,77.4,68.8,29.09,ESE,121,4.9,7.2,75,0.00,,,0.00,LWC V2.10 B1813,2013-06-19 07:49:00,
2013-06-19 02:54:00,77.2,69.0,29.09,East,101,3.1,6.3,76,0.00,,,0.00,LWC V2.10 B1813,2013-06-19 07:54:00,
2013-06-19 02:59:00,77.2,69.0,29.09,East,100,3.6,6.3,76,0.00,,,0.00,LWC V2.10 B1813,2013-06-19 07:59:00,
2013-06-19 03:04:00,77.0,69.2,29.09,ESE,106,5.4,5.4,77,0.00,,,0.00,LWC V2.10 B1813,2013-06-19 08:04:00,
2013-06-19 03:09:00,77.0,69.2,29.09,ESE,106,3.6,6.3,77,0.00,,,0.00,LWC V2.10 B1813,2013-06-19 08:09:00,
2013-06-19 03:14:00,76.8,69.0,29.09,ESE,114,4.9,6.3,77,0.00,,,0.00,LWC V2.10 B1813,2013-06-19 08:14:00,
2013-06-19 03:19:00,76.6,69.2,29.09,ESE,102,3.1,5.4,78,0.00,,,0.00,LWC V2.10 B1813,2013-06-19 08:19:00,
2013-06-19 03:24:00,76.5,69.1,29.09,East,80,3.6,3.6,78,0.00,,,0.00,LWC V2.10 B1813,2013-06-19 08:24:00,
2013-06-19 03:29:00,76.3,68.9,29.09,ESE,120,4.0,4.9,78,0.00,,,0.00,LWC V2.10 B1813,2013-06-19 08:29:00,
2013-06-19 03:34:00,76.3,69.3,29.09,ESE,123,4.0,5.8,79,0.00,,,0.00,LWC V2.10 B1813,2013-06-19 08:34:00,
2013-06-19 03:39:00,76.1,69.1,29.09,ESE,114,4.5,6.3,79,0.00,,,0.00,LWC V2.10 B1813,2013-06-19 08:39:00,
2013-06-19 03:44:00,75.9,69.3,29.09,ESE,108,4.0,5.4,80,0.00,,,0.00,LWC V2.10 B1813,2013-06-19 08:44:00,
2013-06-19 03:49:00,75.9,69.3,29.09,ESE,119,6.3,6.3,80,0.00,,,0.00,LWC V2.10 B1813,2013-06-19 08:49:00,
2013-06-19 03:54:00,75.7,69.5,29.09,ESE,122,2.7,6.3,81,0.00,,,0.00,LWC V2.10 B1813,2013-06-19 08:54:00,
2013-06-19 03:59:00,75.6,69.3,29.09,SE,125,2.7,5.4,81,0.00,,,0.00,LWC V2.10 B1813,2013-06-19 08:59:00,
2013-06-19 04:04:00,75.6,69.7,29.09,ESE,114,4.9,8.1,82,0.00,,,0.00,LWC V2.10 B1813,2013-06-19 09:04:00,
2013-06-19 04:09:00,75.6,69.7,29.09,East,99,6.3,6.3,82,0.00,,,0.00,LWC V2.10 B1813,2013-06-19 09:09:00,
2013-06-19 04:14:00,75.4,69.8,29.09,East,90,4.9,6.3,83,0.00,,,0.00,LWC V2.10 B1813,2013-06-19 09:14:00,
2013-06-19 04:19:00,75.4,69.8,29.09,ESE,121,3.1,5.4,83,0.00,,,0.00,LWC V2.10 B1813,2013-06-19 09:19:00,
2013-06-19 04:24:00,75.2,70.0,29.09,ESE,121,4.0,4.9,84,0.00,,,0.00,LWC V2.10 B1813,2013-06-19 09:24:00,
2013-06-19 04:29:00,75.0,70.2,29.09,ESE,112,4.0,5.4,85,0.00,,,0.00,LWC V2.10 B1813,2013-06-19 09:29:00,
2013-06-19 04:34:00,75.0,70.2,29.09,SSE,149,3.6,3.6,85,0.00,,,0.00,LWC V2.10 B1813,2013-06-19 09:34:00,
2013-06-19 04:39:00,74.8,70.0,29.09,SSE,167,3.1,6.3,85,0.00,,,0.00,LWC V2.10 B1813,2013-06-19 09:39:00,
2013-06-19 04:44:00,74.8,70.4,29.09,SE,144,2.7,4.0,86,0.00,,,0.00,LWC V2.10 B1813,2013-06-19 09:44:00,
2013-06-19 04:49:00,74.8,70.4,29.09,South,183,3.6,4.9,86,0.00,,,0.00,LWC V2.10 B1813,2013-06-19 09:49:00,
2013-06-19 04:54:00,74.8,70.4,29.09,SSE,162,3.6,5.8,86,0.00,,,0.00,LWC V2.10 B1813,2013-06-19 09:54:00,
2013-06-19 04:59:00,74.8,70.7,29.09,SSE,162,5.4,5.8,87,0.00,,,0.00,LWC V2.10 B1813,2013-06-19 09:59:00,
2013-06-19 05:04:00,74.8,70.7,29.09,SSE,147,5.4,5.8,87,0.00,,,0.00,LWC V2.10 B1813,2013-06-19 10:04:00,
2013-06-19 05:09:00,74.8,70.7,29.09,SSE,166,4.9,5.8,87,0.00,,,0.00,LWC V2.10 B1813,2013-06-19 10:09:00,
2013-06-19 05:14:00,74.8,70.7,29.09,SSE,154,2.7,4.0,87,0.00,,,0.00,LWC V2.10 B1813,2013-06-19 10:14:00,
2013-06-19 05:19:00,74.8,70.7,29.09,SSE,163,3.1,3.1,87,0.00,,,0.00,LWC V2.10 B1813,2013-06-19 10:19:00,
2013-06-19 05:24:00,74.7,70.5,29.09,SE,144,0.0,4.5,87,0.00,,,0.00,LWC V2.10 B1813,2013-06-19 10:24:00,
2013-06-19 05:29:00,74.7,70.9,29.09,SSE,149,5.4,5.4,88,0.00,,,0.00,LWC V2.10 B1813,2013-06-19 10:29:00,
2013-06-19 05:34:00,74.7,70.9,29.09,SSE,147,2.7,4.9,88,0.00,,,0.00,LWC V2.10 B1813,2013-06-19 10:34:00,
2013-06-19 05:39:00,74.7,70.9,29.09,SE,142,3.1,4.5,88,0.00,,,0.00,LWC V2.10 B1813,2013-06-19 10:39:00,
2013-06-19 05:44:00,74.5,70.7,29.09,SE,134,3.1,3.1,88,0.00,,,0.00,LWC V2.10 B1813,2013-06-19 10:44:00,
2013-06-19 05:49:00,74.3,70.5,29.09,SE,146,2.7,4.9,88,0.00,,,0.00,LWC V2.10 B1813,2013-06-19 10:49:00,
2013-06-19 05:54:00,74.3,70.5,29.09,SE,142,3.1,3.6,88,0.00,,,0.00,LWC V2.10 B1813,2013-06-19 10:54:00,
2013-06-19 05:59:00,74.1,70.3,29.09,SE,125,3.1,4.0,88,0.00,,,0.00,LWC V2.10 B1813,2013-06-19 10:59:00,
2013-06-19 06:04:00,74.1,70.3,29.12,ESE,114,3.1,4.0,88,0.00,,,0.00,LWC V2.10 B1813,2013-06-19 11:04:00,
2013-06-19 06:09:00,74.1,70.3,29.12,SE,127,2.7,4.9,88,0.00,,,0.00,LWC V2.10 B1813,2013-06-19 11:09:00,
2013-06-19 06:14:00,73.9,70.2,29.12,SE,126,4.9,4.9,88,0.00,,,0.00,LWC V2.10 B1813,2013-06-19 11:14:00,
2013-06-19 06:19:00,74.1,70.3,29.12,East,101,4.9,4.9,88,0.00,,,0.00,LWC V2.10 B1813,2013-06-19 11:19:00,
2013-06-19 06:24:00,74.1,70.3,29.12,ESE,111,3.6,3.6,88,0.00,,,0.00,LWC V2.10 B1813,2013-06-19 11:24:00,
2013-06-19 06:29:00,74.1,70.3,29.12,SE,137,4.9,5.4,88,0.00,,,0.00,LWC V2.10 B1813,2013-06-19 11:29:00,
2013-06-19 06:34:00,74.3,70.5,29.12,South,169,3.1,3.6,88,0.00,,,0.00,LWC V2.10 B1813,2013-06-19 11:34:00,
2013-06-19 06:39:00,74.3,70.5,29.12,SE,128,3.6,5.4,88,0.00,,,0.00,LWC V2.10 B1813,2013-06-19 11:39:00,
2013-06-19 06:44:00,74.3,70.5,29.12,ESE,116,5.4,5.4,88,0.00,,,0.00,LWC V2.10 B1813,2013-06-19 11:44:00,
2013-06-19 06:49:00,74.3,70.5,29.12,SE,146,3.6,4.0,88,0.00,,,0.00,LWC V2.10 B1813,2013-06-19 11:49:00,
2013-06-19 06:54:00,74.5,70.7,29.12,SSE,159,2.7,4.0,88,0.00,,,0.00,LWC V2.10 B1813,2013-06-19 11:54:00,
2013-06-19 06:59:00,74.5,70.7,29.12,SSE,147,2.7,5.4,88,0.00,,,0.00,LWC V2.10 B1813,2013-06-19 11:59:00,
2013-06-19 07:04:00,74.5,70.7,29.12,East,100,2.7,5.4,88,0.00,,,0.00,LWC V2.10 B1813,2013-06-19 12:04:00,
2013-06-19 07:09:00,74.5,70.7,29.12,SSE,167,5.4,5.4,88,0.00,,,0.00,LWC V2.10 B1813,2013-06-19 12:09:00,
2013-06-19 07:14:00,74.7,70.9,29.12,South,171,3.1,3.6,88,0.00,,,0.00,LWC V2.10 B1813,2013-06-19 12:14:00,
2013-06-19 07:19:00,74.7,70.9,29.12,ESE,105,3.1,4.9,88,0.00,,,0.00,LWC V2.10 B1813,2013-06-19 12:19:00,
2013-06-19 07:24:00,74.7,70.9,29.12,SE,133,0.0,3.6,88,0.00,,,0.00,LWC V2.10 B1813,2013-06-19 12:24:00,
2013-06-19 07:29:00,74.8,71.0,29.12,ESE,112,3.6,4.9,88,0.00,,,0.00,LWC V2.10 B1813,2013-06-19 12:29:00,
2013-06-19 07:34:00,75.0,71.2,29.12,SE,131,0.0,5.4,88,0.00,,,0.00,LWC V2.10 B1813,2013-06-19 12:34:00,
2013-06-19 07:39:00,75.0,71.2,29.12,SSE,152,4.0,5.8,88,0.00,,,0.00,LWC V2.10 B1813,2013-06-19 12:39:00,
2013-06-19 07:44:00,75.4,71.6,29.12,SE,141,3.6,5.8,88,0.00,,,0.00,LWC V2.10 B1813,2013-06-19 12:44:00,
2013-06-19 07:49:00,75.6,71.7,29.12,ESE,103,3.6,3.6,88,0.00,,,0.00,LWC V2.10 B1813,2013-06-19 12:49:00,
2013-06-19 07:54:00,75.7,71.9,29.12,SSE,161,4.9,5.8,88,0.00,,,0.00,LWC V2.10 B1813,2013-06-19 12:54:00,
2013-06-19 07:59:00,75.9,72.1,29.12,SSE,157,3.1,8.3,88,0.00,,,0.00,LWC V2.10 B1813,2013-06-19 12:59:00,
2013-06-19 08:04:00,76.1,71.9,29.12,South,173,4.0,4.9,87,0.00,,,0.00,LWC V2.10 B1813,2013-06-19 13:04:00,
2013-06-19 08:09:00,76.1,71.9,29.12,SE,144,6.3,8.1,87,0.00,,,0.00,LWC V2.10 B1813,2013-06-19 13:09:00,
2013-06-19 08:14:00,76.1,71.9,29.12,South,172,2.2,6.3,87,0.00,,,0.00,LWC V2.10 B1813,2013-06-19 13:14:00,
2013-06-19 08:19:00,76.3,72.1,29.12,SSE,163,6.3,7.2,87,0.00,,,0.00,LWC V2.10 B1813,2013-06-19 13:19:00,
2013-06-19 08:24:00,76.5,71.9,29.12,SE,135,4.5,6.3,86,0.00,,,0.00,LWC V2.10 B1813,2013-06-19 13:24:00,
2013-06-19 08:29:00,76.8,72.3,29.12,SE,136,2.7,6.3,86,0.00,,,0.00,LWC V2.10 B1813,2013-06-19 13:29:00,
2013-06-19 08:34:00,77.0,72.1,29.12,SE,145,6.3,8.3,85,0.00,,,0.00,LWC V2.10 B1813,2013-06-19 13:34:00,
2013-06-19 08:39:00,77.4,72.1,29.12,SSE,161,5.8,5.8,84,0.00,,,0.00,LWC V2.10 B1813,2013-06-19 13:39:00,
2013-06-19 08:44:00,77.4,71.8,29.12,South,175,4.0,6.3,83,0.00,,,0.00,LWC V2.10 B1813,2013-06-19 13:44:00,
2013-06-19 08:49:00,77.7,71.8,29.12,SSW,205,5.8,8.7,82,0.00,,,0.00,LWC V2.10 B1813,2013-06-19 13:49:00,
2013-06-19 08:54:00,77.9,71.9,29.12,SE,139,5.8,8.7,82,0.00,,,0.00,LWC V2.10 B1813,2013-06-19 13:54:00,
2013-06-19 08:59:00,78.1,71.4,29.12,South,183,5.8,8.7,80,0.00,,,0.00,LWC V2.10 B1813,2013-06-19 13:59:00,
2013-06-19 09:04:00,78.4,71.4,29.12,South,173,8.1,8.7,79,0.00,,,0.00,LWC V2.10 B1813,2013-06-19 14:04:00,
2013-06-19 09:09:00,78.6,71.2,29.12,SE,130,8.1,9.6,78,0.00,,,0.00,LWC V2.10 B1813,2013-06-19 14:09:00,
2013-06-19 09:14:00,78.6,71.2,29.12,SSW,195,3.1,9.2,78,0.00,,,0.00,LWC V2.10 B1813,2013-06-19 14:14:00,
2013-06-19 09:19:00,78.8,71.3,29.12,SE,135,5.8,6.3,78,0.00,,,0.00,LWC V2.10 B1813,2013-06-19 14:19:00,
2013-06-19 09:24:00,79.3,71.5,29.12,SE,124,4.0,8.3,77,0.00,,,0.00,LWC V2.10 B1813,2013-06-19 14:24:00,
2013-06-19 09:29:00,79.9,72.0,29.12,SSW,205,6.3,7.2,77,0.00,,,0.00,LWC V2.10 B1813,2013-06-19 14:29:00,
2013-06-19 09:34:00,79.7,70.7,29.15,SSW,207,6.3,14.1,74,0.00,,,0.00,LWC V2.10 B1813,2013-06-19 14:34:00,
2013-06-19 09:39:00,80.1,71.0,29.15,SW,221,4.9,6.3,74,0.00,,,0.00,LWC V2.10 B1813,2013-06-19 14:39:00,
2013-06-19 09:44:00,80.2,70.4,29.15,SSE,154,7.6,8.3,72,0.00,,,0.00,LWC V2.10 B1813,2013-06-19 14:44:00,
2013-06-19 09:49:00,80.1,69.8,29.15,South,185,8.3,9.6,71,0.00,,,0.00,LWC V2.10 B1813,2013-06-19 14:49:00,
2013-06-19 09:54:00,80.6,70.3,29.15,SSE,165,3.6,7.6,71,0.00,,,0.00,LWC V2.10 B1813,2013-06-19 14:54:00,
2013-06-19 09:59:00,81.0,70.6,29.15,SSE,151,5.4,7.6,71,0.00,,,0.00,LWC V2.10 B1813,2013-06-19 14:59:00,
2013-06-19 10:00:00,81.0,70.6,29.15,SSW,198,7.6,7.6,71,0.00,,,0.00,LWC V2.10 B1813,2013-06-19 15:00:00,
2013-06-19 10:05:00,80.8,69.6,29.12,SSW,203,5.4,6.3,69,0.00,,,0.00,LWC V2.10 B1813,2013-06-19 15:05:00,
2013-06-19 10:10:00,81.0,69.8,29.12,SSW,204,3.1,6.3,69,0.00,,,0.00,LWC V2.10 B1813,2013-06-19 15:10:00,
2013-06-19 10:15:00,81.1,70.0,29.12,SSE,157,4.0,5.8,69,0.00,,,0.00,LWC V2.10 B1813,2013-06-19 15:15:00,
2013-06-19 10:20:00,81.3,69.7,29.15,South,182,7.6,8.7,68,0.00,,,0.00,LWC V2.10 B1813,2013-06-19 15:20:00,
2013-06-19 10:25:00,81.7,70.5,29.15,South,187,5.8,5.8,69,0.00,,,0.00,LWC V2.10 B1813,2013-06-19 15:25:00,
2013-06-19 10:30:00,81.9,70.2,29.15,SSW,203,4.9,5.8,68,0.00,,,0.00,LWC V2.10 B1813,2013-06-19 15:30:00,
2013-06-19 10:35:00,82.2,70.6,29.15,South,173,6.3,8.3,68,0.00,,,0.00,LWC V2.10 B1813,2013-06-19 15:35:00,
2013-06-19 10:46:00,82.9,69.9,29.15,SSW,203,7.6,7.6,65,0.00,,,0.00,LWC V2.10 B1813,2013-06-19 15:46:00,
2013-06-19 10:51:00,83.3,68.9,29.15,SSW,209,5.8,6.3,62,0.00,,,0.00,LWC V2.10 B1813,2013-06-19 15:51:00,
2013-06-19 10:56:00,83.7,69.2,29.15,SSE,158,5.8,8.1,62,0.00,,,0.00,LWC V2.10 B1813,2013-06-19 15:56:00,
2013-06-19 11:01:00,83.8,68.9,29.15,South,177,7.6,10.5,61,0.00,,,0.00,LWC V2.10 B1813,2013-06-19 16:01:00,
2013-06-19 11:06:00,84.0,69.1,29.15,SSW,206,3.6,9.2,61,0.00,,,0.00,LWC V2.10 B1813,2013-06-19 16:06:00,
2013-06-19 11:11:00,83.5,68.6,29.15,SW,222,4.0,6.7,61,0.00,,,0.00,LWC V2.10 B1813,2013-06-19 16:11:00,
2013-06-19 11:16:00,84.4,68.9,29.15,SSW,199,5.8,8.3,60,0.00,,,0.00,LWC V2.10 B1813,2013-06-19 16:16:00,
2013-06-19 11:21:00,84.7,69.8,29.15,SSE,151,3.6,5.8,61,0.00,,,0.00,LWC V2.10 B1813,2013-06-19 16:21:00,
2013-06-19 11:26:00,85.3,69.8,29.15,SSE,163,6.3,6.3,60,0.00,,,0.00,LWC V2.10 B1813,2013-06-19 16:26:00,
2013-06-19 11:31:00,84.6,68.6,29.15,SSW,211,5.4,5.8,59,0.00,,,0.00,LWC V2.10 B1813,2013-06-19 16:31:00,
2013-06-19 11:36:00,84.9,69.5,29.15,South,187,4.0,5.8,60,0.00,,,0.00,LWC V2.10 B1813,2013-06-19 16:36:00,
2013-06-19 11:41:00,85.8,69.3,29.15,SW,214,3.1,6.3,58,0.00,,,0.00,LWC V2.10 B1813,2013-06-19 16:41:00,
2013-06-19 11:46:00,86.2,68.6,29.15,SE,131,5.8,8.3,56,0.00,,,0.00,LWC V2.10 B1813,2013-06-19 16:46:00,
2013-06-19 11:51:00,86.5,68.9,29.15,South,182,3.1,8.1,56,0.00,,,0.00,LWC V2.10 B1813,2013-06-19 16:51:00,
2013-06-19 11:56:00,86.4,67.7,29.15,SW,214,7.6,7.6,54,0.00,,,0.00,LWC V2.10 B1813,2013-06-19 16:56:00,
2013-06-19 12:01:00,86.4,68.8,29.15,SSE,151,3.1,4.0,56,0.00,,,0.00,LWC V2.10 B1813,2013-06-19 17:01:00,
2013-06-19 12:06:00,86.9,68.2,29.15,East,89,2.7,5.4,54,0.00,,,0.00,LWC V2.10 B1813,2013-06-19 17:06:00,
2013-06-19 12:12:00,87.6,68.9,29.15,SSW,209,5.4,5.4,54,0.00,,,0.00,LWC V2.10 B1813,2013-06-19 17:12:00,
2013-06-19 12:17:00,87.6,68.3,29.15,SSW,210,3.1,4.0,53,0.00,,,0.00,LWC V2.10 B1813,2013-06-19 17:17:00,
2013-06-19 12:22:00,88.0,68.1,29.15,East,96,2.7,4.0,52,0.00,,,0.00,LWC V2.10 B1813,2013-06-19 17:22:00,
2013-06-19 12:27:00,88.0,68.7,29.15,SSE,159,3.6,5.8,53,0.00,,,0.00,LWC V2.10 B1813,2013-06-19 17:27:00,
2013-06-19 12:32:00,88.2,68.3,29.12,SE,133,3.6,6.3,52,0.00,,,0.00,LWC V2.10 B1813,2013-06-19 17:32:00,
2013-06-19 12:37:00,88.2,67.7,29.12,SSW,199,2.7,4.9,51,0.00,,,0.00,LWC V2.10 B1813,2013-06-19 17:37:00,
2013-06-19 12:42:00,88.2,67.7,29.12,South,180,3.1,6.3,51,0.00,,,0.00,LWC V2.10 B1813,2013-06-19 17:42:00,
2013-06-19 12:47:00,88.7,68.2,29.12,South,176,2.7,7.6,51,0.00,,,0.00,LWC V2.10 B1813,2013-06-19 17:47:00,
2013-06-19 12:52:00,88.9,67.2,29.12,ESE,123,7.6,8.7,49,0.00,,,0.00,LWC V2.10 B1813,2013-06-19 17:52:00,
2013-06-19 12:57:00,88.9,67.2,29.12,South,177,5.8,6.3,49,0.00,,,0.00,LWC V2.10 B1813,2013-06-19 17:57:00,
2013-06-19 13:02:00,89.1,67.4,29.12,SSE,148,4.0,5.8,49,0.00,,,0.00,LWC V2.10 B1813,2013-06-19 18:02:00,
2013-06-19 13:07:00,89.2,67.5,29.12,South,174,0.0,5.8,49,0.00,,,0.00,LWC V2.10 B1813,2013-06-19 18:07:00,
2013-06-19 13:12:00,89.6,67.3,29.12,SSW,195,6.3,6.3,48,0.00,,,0.00,LWC V2.10 B1813,2013-06-19 18:12:00,
2013-06-19 13:17:00,90.0,66.4,29.12,SE,140,8.7,8.7,46,0.00,,,0.00,LWC V2.10 B1813,2013-06-19 18:17:00,
2013-06-19 13:22:00,89.4,65.2,29.12,ESE,115,4.0,6.3,45,0.00,,,0.00,LWC V2.10 B1813,2013-06-19 18:22:00,
2013-06-19 13:27:00,90.0,66.4,29.12,SSE,157,5.4,8.3,46,0.00,,,0.00,LWC V2.10 B1813,2013-06-19 18:27:00,
2013-06-19 13:32:00,89.6,65.4,29.12,SSW,200,3.1,9.6,45,0.00,,,0.00,LWC V2.10 B1813,2013-06-19 18:32:00,
2013-06-19 13:37:00,90.5,66.2,29.12,East,99,3.6,7.2,45,0.00,,,0.00,LWC V2.10 B1813,2013-06-19 18:37:00,
2013-06-19 13:42:00,90.3,66.0,29.12,SE,146,8.3,8.7,45,0.00,,,0.00,LWC V2.10 B1813,2013-06-19 18:42:00,
2013-06-19 13:47:00,90.5,66.2,29.12,SSE,166,4.0,5.4,45,0.00,,,0.00,LWC V2.10 B1813,2013-06-19 18:47:00,
2013-06-19 13:52:00,90.7,65.7,29.12,South,181,5.8,5.8,44,0.00,,,0.00,LWC V2.10 B1813,2013-06-19 18:52:00,
2013-06-19 13:57:00,90.7,65.1,29.12,South,183,6.7,9.6,43,0.00,,,0.00,LWC V2.10 B1813,2013-06-19 18:57:00,
2013-06-19 13:58:00,90.7,65.1,29.12,SSE,152,7.6,9.6,43,0.00,,,0.00,LWC V2.10 B1813,2013-06-19 18:58:00,
2013-06-19 14:03:00,90.7,65.7,29.12,South,176,5.4,5.8,44,0.00,,,0.00,LWC V2.10 B1813,2013-06-19 19:03:00,
2013-06-19 14:08:00,90.9,65.2,29.12,SSE,157,6.3,6.3,43,0.00,,,0.00,LWC V2.10 B1813,2013-06-19 19:08:00,
2013-06-19 14:13:00,91.2,65.5,29.12,SSE,149,3.6,8.1,43,0.00,,,0.00,LWC V2.10 B1813,2013-06-19 19:13:00,
2013-06-19 14:18:00,91.4,65.7,29.09,SE,141,7.6,8.1,43,0.00,,,0.00,LWC V2.10 B1813,2013-06-19 19:18:00,
2013-06-19 14:23:00,91.6,65.9,29.09,ESE,119,4.0,6.3,43,0.00,,,0.00,LWC V2.10 B1813,2013-06-19 19:23:00,
2013-06-19 14:29:00,91.9,65.5,29.09,South,188,3.6,7.6,42,0.00,,,0.00,LWC V2.10 B1813,2013-06-19 19:29:00,
2013-06-19 14:34:00,92.5,66.7,29.12,SSE,157,4.0,5.4,43,0.00,,,0.00,LWC V2.10 B1813,2013-06-19 19:34:00,
2013-06-19 14:39:00,91.8,66.0,29.12,ESE,105,3.1,9.6,43,0.00,,,0.00,LWC V2.10 B1813,2013-06-19 19:39:00,
2013-06-19 14:44:00,91.6,66.5,29.12,ENE,73,3.6,5.8,44,0.00,,,0.00,LWC V2.10 B1813,2013-06-19 19:44:00,
2013-06-19 14:49:00,91.9,66.9,29.09,East,92,3.1,5.4,44,0.00,,,0.00,LWC V2.10 B1813,2013-06-19 19:49:00,
2013-06-19 14:54:00,92.3,66.5,29.09,SSW,211,4.0,5.8,43,0.00,,,0.00,LWC V2.10 B1813,2013-06-19 19:54:00,
2013-06-19 14:59:00,93.4,67.5,29.09,SSE,155,2.2,4.9,43,0.00,,,0.00,LWC V2.10 B1813,2013-06-19 19:59:00,
2013-06-19 15:04:00,92.8,66.3,29.09,SSE,156,5.4,6.3,42,0.00,,,0.00,LWC V2.10 B1813,2013-06-19 20:04:00,
2013-06-19 15:09:00,93.0,66.5,29.09,ESE,115,5.8,8.3,42,0.00,,,0.00,LWC V2.10 B1813,2013-06-19 20:09:00,
2013-06-19 15:14:00,92.8,67.0,29.09,ENE,76,3.1,7.2,43,0.00,,,0.00,LWC V2.10 B1813,2013-06-19 20:14:00,
2013-06-19 15:19:00,92.7,66.8,29.09,SE,126,4.0,8.1,43,0.00,,,0.00,LWC V2.10 B1813,2013-06-19 20:19:00,
2013-06-19 15:24:00,92.5,66.7,29.09,East,87,3.1,7.6,43,0.00,,,0.00,LWC V2.10 B1813,2013-06-19 20:24:00,
2013-06-19 15:29:00,92.5,66.7,29.09,East,101,5.8,7.2,43,0.00,,,0.00,LWC V2.10 B1813,2013-06-19 20:29:00,
2013-06-19 15:34:00,92.5,66.7,29.09,ENE,67,6.7,6.7,43,0.00,,,0.00,LWC V2.10 B1813,2013-06-19 20:34:00,
2013-06-19 15:39:00,93.0,67.2,29.09,East,94,4.0,6.3,43,0.00,,,0.00,LWC V2.10 B1813,2013-06-19 20:39:00,
2013-06-19 15:44:00,93.0,66.5,29.09,NE,56,3.6,8.7,42,0.00,,,0.00,LWC V2.10 B1813,2013-06-19 20:44:00,
2013-06-19 15:49:00,92.8,66.3,29.09,East,96,6.7,8.3,42,0.00,,,0.00,LWC V2.10 B1813,2013-06-19 20:49:00,
2013-06-19 15:54:00,92.3,65.8,29.09,East,91,5.4,5.8,42,0.00,,,0.00,LWC V2.10 B1813,2013-06-19 20:54:00,
2013-06-19 15:59:00,93.0,66.5,29.09,SE,141,8.1,8.3,42,0.00,,,0.00,LWC V2.10 B1813,2013-06-19 20:59:00,
2013-06-19 16:04:00,92.8,66.3,29.09,ESE,106,4.0,11.0,42,0.00,,,0.00,LWC V2.10 B1813,2013-06-19 21:04:00,
2013-06-19 16:09:00,92.5,66.7,29.09,East,87,3.1,7.6,43,0.00,,,0.00,LWC V2.10 B1813,2013-06-19 21:09:00,
2013-06-19 16:14:00,92.8,67.0,29.09,East,91,4.9,7.6,43,0.00,,,0.00,LWC V2.10 B1813,2013-06-19 21:14:00,
2013-06-19 16:19:00,92.7,66.8,29.09,SSE,161,5.4,10.5,43,0.00,,,0.00,LWC V2.10 B1813,2013-06-19 21:19:00,
2013-06-19 16:24:00,91.8,65.4,29.09,SE,146,4.0,10.5,42,0.00,,,0.00,LWC V2.10 B1813,2013-06-19 21:24:00,
2013-06-19 16:29:00,92.3,65.8,29.09,SE,129,7.6,9.2,42,0.00,,,0.00,LWC V2.10 B1813,2013-06-19 21:29:00,
2013-06-19 16:34:00,92.5,65.3,29.09,East,95,6.3,9.2,41,0.00,,,0.00,LWC V2.10 B1813,2013-06-19 21:34:00,
2013-06-19 16:39:00,93.0,66.5,29.09,East,88,8.1,8.1,42,0.00,,,0.00,LWC V2.10 B1813,2013-06-19 21:39:00,
2013-06-19 16:44:00,92.8,65.6,29.09,SSE,151,5.4,7.2,41,0.00,,,0.00,LWC V2.10 B1813,2013-06-19 21:44:00,
2013-06-19 16:49:00,93.0,65.8,29.09,NE,35,5.8,7.6,41,0.00,,,0.00,LWC V2.10 B1813,2013-06-19 21:49:00,
2013-06-19 16:54:00,92.7,64.8,29.09,East,92,3.1,8.7,40,0.00,,,0.00,LWC V2.10 B1813,2013-06-19 21:54:00,
2013-06-19 16:59:00,92.7,64.8,29.09,ENE,75,2.7,10.5,40,0.00,,,0.00,LWC V2.10 B1813,2013-06-19 21:59:00,
2013-06-19 17:04:00,93.0,65.1,29.09,SE,136,8.7,8.7,40,0.00,,,0.00,LWC V2.10 B1813,2013-06-19 22:04:00,
2013-06-19 17:09:00,93.0,65.1,29.09,South,176,5.8,5.8,40,0.00,,,0.00,LWC V2.10 B1813,2013-06-19 22:09:00,
2013-06-19 17:14:00,93.2,65.2,29.09,South,172,0.0,5.8,40,0.00,,,0.00,LWC V2.10 B1813,2013-06-19 22:14:00,
2013-06-19 17:19:00,93.4,65.4,29.06,East,80,5.8,8.1,40,0.00,,,0.00,LWC V2.10 B1813,2013-06-19 22:19:00,
2013-06-19 17:24:00,93.4,65.4,29.06,SSE,149,4.0,5.8,40,0.00,,,0.00,LWC V2.10 B1813,2013-06-19 22:24:00,
2013-06-19 17:29:00,93.4,64.7,29.06,SSE,156,4.9,7.6,39,0.00,,,0.00,LWC V2.10 B1813,2013-06-19 22:29:00,
2013-06-19 17:34:00,93.2,64.5,29.06,SE,135,7.6,7.6,39,0.00,,,0.00,LWC V2.10 B1813,2013-06-19 22:34:00,
2013-06-19 17:39:00,93.6,65.6,29.06,SSW,197,5.8,5.8,40,0.00,,,0.00,LWC V2.10 B1813,2013-06-19 22:39:00,
2013-06-19 17:44:00,93.0,64.3,29.06,ESE,116,6.3,8.7,39,0.00,,,0.00,LWC V2.10 B1813,2013-06-19 22:44:00,
2013-06-19 17:49:00,92.8,64.2,29.06,East,97,4.9,8.3,39,0.00,,,0.00,LWC V2.10 B1813,2013-06-19 22:49:00,
2013-06-19 17:54:00,93.2,64.5,29.06,SE,124,2.7,7.6,39,0.00,,,0.00,LWC V2.10 B1813,2013-06-19 22:54:00,
2013-06-19 17:59:00,93.4,63.9,29.06,SE,133,6.7,8.1,38,0.00,,,0.00,LWC V2.10 B1813,2013-06-19 22:59:00,
2013-06-19 18:04:00,93.4,63.9,29.06,South,176,5.8,7.2,38,0.00,,,0.00,LWC V2.10 B1813,2013-06-19 23:04:00,
2013-06-19 18:09:00,93.0,64.3,29.06,SSE,163,5.4,5.8,39,0.00,,,0.00,LWC V2.10 B1813,2013-06-19 23:09:00,
2013-06-19 18:14:00,92.8,64.2,29.06,SE,138,4.9,6.3,39,0.00,,,0.00,LWC V2.10 B1813,2013-06-19 23:14:00,
2013-06-19 18:19:00,92.8,64.2,29.06,SSE,155,5.4,9.6,39,0.00,,,0.00,LWC V2.10 B1813,2013-06-19 23:19:00,
2013-06-19 18:24:00,92.7,64.0,29.06,SSE,156,4.0,7.6,39,0.00,,,0.00,LWC V2.10 B1813,2013-06-19 23:24:00,
2013-06-19 18:29:00,92.7,64.0,29.06,SSE,160,6.3,6.3,39,0.00,,,0.00,LWC V2.10 B1813,2013-06-19 23:29:00,
2013-06-19 18:34:00,92.7,64.0,29.06,SSE,149,3.1,8.1,39,0.00,,,0.00,LWC V2.10 B1813,2013-06-19 23:34:00,
2013-06-19 18:39:00,92.7,64.0,29.06,SE,141,4.9,6.3,39,0.00,,,0.00,LWC V2.10 B1813,2013-06-19 23:39:00,
2013-06-19 18:44:00,92.7,64.8,29.06,East,100,3.1,5.8,40,0.00,,,0.00,LWC V2.10 B1813,2013-06-19 23:44:00,
2013-06-19 18:49:00,92.8,64.9,29.06,East,94,3.1,4.0,40,0.00,,,0.00,LWC V2.10 B1813,2013-06-19 23:49:00,
2013-06-19 18:54:00,92.7,64.8,29.06,East,100,2.7,4.0,40,0.00,,,0.00,LWC V2.10 B1813,2013-06-19 23:54:00,
2013-06-19 18:59:00,92.5,64.6,29.06,East,98,2.2,3.6,40,0.00,,,0.00,LWC V2.10 B1813,2013-06-19 23:59:00,
2013-06-19 19:04:00,92.5,64.6,29.06,NE,56,2.7,3.6,40,0.00,,,0.00,LWC V2.10 B1813,2013-06-20 00:04:00,
2013-06-19 19:09:00,92.3,64.4,29.06,East,100,4.0,4.0,40,0.00,,,0.00,LWC V2.10 B1813,2013-06-20 00:09:00,
2013-06-19 19:14:00,92.1,64.3,29.06,ESE,111,4.0,4.0,40,0.00,,,0.00,LWC V2.10 B1813,2013-06-20 00:14:00,
2013-06-19 19:19:00,91.9,64.1,29.06,ESE,112,3.6,5.4,40,0.00,,,0.00,LWC V2.10 B1813,2013-06-20 00:19:00,
2013-06-19 19:24:00,91.8,64.0,29.06,ESE,123,3.6,5.4,40,0.00,,,0.00,LWC V2.10 B1813,2013-06-20 00:24:00,
2013-06-19 19:29:00,91.8,64.0,29.06,East,85,4.0,4.0,40,0.00,,,0.00,LWC V2.10 B1813,2013-06-20 00:29:00,
2013-06-19 19:34:00,91.2,64.2,29.06,SE,146,3.1,5.4,41,0.00,,,0.00,LWC V2.10 B1813,2013-06-20 00:34:00,
2013-06-19 19:39:00,90.7,63.7,29.06,ESE,107,4.9,5.4,41,0.00,,,0.00,LWC V2.10 B1813,2013-06-20 00:39:00,
2013-06-19 19:44:00,90.1,63.2,29.06,SE,141,3.1,4.9,41,0.00,,,0.00,LWC V2.10 B1813,2013-06-20 00:44:00,
2013-06-19 19:49:00,89.6,62.7,29.06,SE,135,2.7,4.9,41,0.00,,,0.00,LWC V2.10 B1813,2013-06-20 00:49:00,
2013-06-19 19:54:00,89.6,62.7,29.06,SSE,163,3.6,4.9,41,0.00,,,0.00,LWC V2.10 B1813,2013-06-20 00:54:00,
2013-06-19 19:59:00,89.6,63.4,29.06,ESE,117,2.2,4.0,42,0.00,,,0.00,LWC V2.10 B1813,2013-06-20 00:59:00,
2013-06-19 20:04:00,89.4,63.9,29.06,East,101,2.2,4.9,43,0.00,,,0.00,LWC V2.10 B1813,2013-06-20 01:04:00,
2013-06-19 20:09:00,89.2,63.8,29.06,ESE,107,3.6,4.0,43,0.00,,,0.00,LWC V2.10 B1813,2013-06-20 01:09:00,
2013-06-19 20:14:00,88.9,63.4,29.06,East,91,4.0,4.9,43,0.00,,,0.00,LWC V2.10 B1813,2013-06-20 01:14:00,
2013-06-19 20:19:00,88.5,63.8,29.09,East,85,5.8,5.8,44,0.00,,,0.00,LWC V2.10 B1813,2013-06-20 01:19:00,
2013-06-19 20:24:00,88.2,63.5,29.09,East,87,2.7,4.0,44,0.00,,,0.00,LWC V2.10 B1813,2013-06-20 01:24:00,
2013-06-19 20:29:00,88.2,63.5,29.09,ENE,70,2.7,5.4,44,0.00,,,0.00,LWC V2.10 B1813,2013-06-20 01:29:00,
2013-06-19 20:34:00,87.8,63.1,29.09,East,85,2.7,3.6,44,0.00,,,0.00,LWC V2.10 B1813,2013-06-20 01:34:00,
2013-06-19 20:39:00,87.6,63.6,29.09,ESE,107,3.1,4.0,45,0.00,,,0.00,LWC V2.10 B1813,2013-06-20 01:39:00,
2013-06-19 20:44:00,87.4,63.4,29.09,East,98,2.7,4.9,45,0.00,,,0.00,LWC V2.10 B1813,2013-06-20 01:44:00,
2013-06-19 20:49:00,87.3,63.3,29.09,East,96,3.6,5.8,45,0.00,,,0.00,LWC V2.10 B1813,2013-06-20 01:49:00,
2013-06-19 20:54:00,87.1,63.1,29.09,East,97,3.6,5.8,45,0.00,,,0.00,LWC V2.10 B1813,2013-06-20 01:54:00,
2013-06-19 20:59:00,87.1,63.8,29.09,East,91,3.1,4.0,46,0.00,,,0.00,LWC V2.10 B1813,2013-06-20 01:59:00,
2013-06-19 21:04:00,86.7,63.4,29.09,ESE,104,2.7,4.0,46,0.00,,,0.00,LWC V2.10 B1813,2013-06-20 02:04:00,
2013-06-19 21:09:00,86.7,63.4,29.09,East,98,2.7,4.0,46,0.00,,,0.00,LWC V2.10 B1813,2013-06-20 02:09:00,
2013-06-19 21:14:00,86.5,63.3,29.09,East,86,4.0,4.0,46,0.00,,,0.00,LWC V2.10 B1813,2013-06-20 02:14:00,
2013-06-19 21:19:00,86.5,63.3,29.09,SE,130,3.1,4.9,46,0.00,,,0.00,LWC V2.10 B1813,2013-06-20 02:19:00,
2013-06-19 21:24:00,86.5,63.9,29.09,ESE,112,4.9,5.8,47,0.00,,,0.00,LWC V2.10 B1813,2013-06-20 02:24:00,
2013-06-19 21:29:00,86.7,63.4,29.09,East,97,5.4,5.8,46,0.00,,,0.00,LWC V2.10 B1813,2013-06-20 02:29:00,
2013-06-19 21:34:00,86.5,63.3,29.09,SE,136,6.3,6.3,46,0.00,,,0.00,LWC V2.10 B1813,2013-06-20 02:34:00,
2013-06-19 21:39:00,86.4,63.1,29.09,SE,125,3.6,5.8,46,0.00,,,0.00,LWC V2.10 B1813,2013-06-20 02:39:00,
2013-06-19 21:44:00,86.0,62.8,29.09,ESE,102,4.0,5.4,46,0.00,,,0.00,LWC V2.10 B1813,2013-06-20 02:44:00,
2013-06-19 21:49:00,85.6,63.1,29.09,ESE,115,3.6,5.4,47,0.00,,,0.00,LWC V2.10 B1813,2013-06-20 02:49:00,
2013-06-19 21:54:00,85.3,62.7,29.09,ESE,105,4.0,5.8,47,0.00,,,0.00,LWC V2.10 B1813,2013-06-20 02:54:00,
2013-06-19 21:59:00,85.5,62.3,29.09,SSW,192,5.4,5.4,46,0.00,,,0.00,LWC V2.10 B1813,2013-06-20 02:59:00,
2013-06-19 22:04:00,85.8,62.0,29.09,SE,127,3.6,9.6,45,0.00,,,0.00,LWC V2.10 B1813,2013-06-20 03:04:00,
2013-06-19 22:09:00,85.6,61.8,29.09,SSE,162,6.3,7.6,45,0.00,,,0.00,LWC V2.10 B1813,2013-06-20 03:09:00,
2013-06-19 22:14:00,85.5,61.7,29.09,South,183,4.5,8.1,45,0.00,,,0.00,LWC V2.10 B1813,2013-06-20 03:14:00,
2013-06-19 22:19:00,85.5,61.7,29.09,SSE,148,6.3,8.7,45,0.00,,,0.00,LWC V2.10 B1813,2013-06-20 03:19:00,
2013-06-19 22:24:00,85.5,61.7,29.09,SSE,147,5.8,8.3,45,0.00,,,0.00,LWC V2.10 B1813,2013-06-20 03:24:00,
2013-06-19 22:29:00,85.5,61.7,29.09,SSE,168,6.3,7.6,45,0.00,,,0.00,LWC V2.10 B1813,2013-06-20 03:29:00,
2013-06-19 22:34:00,85.5,61.7,29.09,South,177,5.4,8.3,45,0.00,,,0.00,LWC V2.10 B1813,2013-06-20 03:34:00,
2013-06-19 22:39:00,85.5,62.9,29.09,SSE,167,8.7,8.7,47,0.00,,,0.00,LWC V2.10 B1813,2013-06-20 03:39:00,
2013-06-19 22:44:00,85.3,63.3,29.09,SSE,150,6.3,10.5,48,0.00,,,0.00,LWC V2.10 B1813,2013-06-20 03:44:00,
2013-06-19 22:49:00,85.1,63.8,29.09,SE,125,8.3,10.1,49,0.00,,,0.00,LWC V2.10 B1813,2013-06-20 03:49:00,
2013-06-19 22:54:00,84.9,64.7,29.09,SSE,162,8.3,11.4,51,0.00,,,0.00,LWC V2.10 B1813,2013-06-20 03:54:00,
2013-06-19 22:59:00,84.6,65.0,29.09,SSE,159,7.6,11.0,52,0.00,,,0.00,LWC V2.10 B1813,2013-06-20 03:59:00,
2013-06-19 23:01:00,84.6,65.5,29.09,South,172,7.6,11.0,53,0.00,,,0.00,LWC V2.10 B1813,2013-06-20 04:01:00,
2013-06-19 23:06:00,84.6,66.1,29.09,SSW,192,10.5,17.9,54,0.00,,,0.00,LWC V2.10 B1813,2013-06-20 04:06:00,
2013-06-19 23:11:00,84.4,66.4,29.09,SSE,161,8.1,10.5,55,0.00,,,0.00,LWC V2.10 B1813,2013-06-20 04:11:00,
2013-06-19 23:16:00,84.2,66.2,29.12,South,188,11.0,11.0,55,0.00,,,0.00,LWC V2.10 B1813,2013-06-20 04:16:00,
2013-06-19 23:21:00,84.0,66.6,29.12,South,185,7.6,10.1,56,0.00,,,0.00,LWC V2.10 B1813,2013-06-20 04:21:00,
2013-06-19 23:26:00,83.8,66.9,29.12,South,187,2.7,6.3,57,0.00,,,0.00,LWC V2.10 B1813,2013-06-20 04:26:00,
2013-06-19 23:31:00,83.7,66.8,29.12,South,170,4.0,5.8,57,0.00,,,0.00,LWC V2.10 B1813,2013-06-20 04:31:00,
2013-06-19 23:36:00,83.3,66.9,29.12,SE,141,4.9,11.0,58,0.00,,,0.00,LWC V2.10 B1813,2013-06-20 04:36:00,
2013-06-19 23:41:00,83.1,66.8,29.12,SSW,194,10.5,10.5,58,0.00,,,0.00,LWC V2.10 B1813,2013-06-20 04:41:00,
2013-06-19 23:46:00,82.9,66.6,29.12,SSE,151,11.4,11.4,58,0.00,,,0.00,LWC V2.10 B1813,2013-06-20 04:46:00,
2013-06-19 23:51:00,82.8,66.9,29.12,SSW,197,4.0,8.7,59,0.00,,,0.00,LWC V2.10 B1813,2013-06-20 04:51:00,
2013-06-19 23:56:00,82.6,66.8,29.12,SSE,168,5.8,15.9,59,0.00,,,0.00,LWC V2.10 B1813,2013-06-20 04:56:00,